Regional Weather Roundup
Issued by NWS Charleston, SC

Home | Current Version | Previous Version | Text Only | Print | Product List | Glossary On
Versions: 1 2 3 4 5 6 7 8 9 10 11 12 13 14 15 16 17 18 19 20 21 22 23 24 25 26 27 28 29 30 31 32 33 34 35 36 37 38 39 40 41 42 43 44 45 46 47 48 49 50
902
ASUS42 KCHS 142328
RWRCHS

REGIONAL WEATHER ROUNDUP
NATIONAL WEATHER SERVICE CHARLESTON SC
600 PM EST SUN FEB 14 2016

NOTE: "FAIR" INDICATES FEW OR NO CLOUDS BELOW 12,000 FEET WITH NO
SIGNIFICANT WEATHER AND/OR OBSTRUCTIONS TO VISIBILITY.

NOT ALL STATIONS ARE QUALITY CONTROLLED BY THE NATIONAL
WEATHER SERVICE. USE DATA WITH CAUTION...ESPECIALLY
DEWPOINT OBSERVATIONS.

SCZ027-030-031-034>040-042>050-150000-
...SOUTHEAST SOUTH CAROLINA...

CITY           SKY/WX    TMP DP  RH WIND       PRES   REMARKS
N CHARLESTON   CLOUDY    38  25  59 NE13      30.39F WCI  30
WATERFRONT PRK   N/A     38  32  79 NE16      30.24R WCI  29
MOUNT PLEASANT CLOUDY    37  30  75 NE6       30.40S WCI  33
JOHNS ISLAND   CLOUDY    37  32  81 NE13G21   30.39S WCI  29
PINOPOLIS        N/A     37  21  52 SE8       30.33R WCI  31
MONCKS CORNER  CLOUDY    34  19  55 E6        30.41R WCI  29
SUMMERVILLE    CLOUDY    37  27  65 E7        30.40R WCI  32
BEAUFORT MCAS  CLOUDY    40  27  59 NE9       30.37S WCI  34
BEAUFORT ARPT  CLOUDY    39  32  75 NE15      30.37S WCI  31
HILTON HEAD IS CLOUDY    41  34  75 NE16G22   30.37S
WALTERBORO     CLOUDY    43  25  49 E7        30.39R
ALLENDALE      CLOUDY    43  18  36 CALM      30.35S

...SOUTHERN MIDLANDS AND PEE DEE...

CITY           SKY/WX    TMP DP  RH WIND       PRES   REMARKS
GEORGETOWN     CLOUDY    34  21  60 E9        30.43F WCI  26
KINGSTREE      CLOUDY    36   9  32 E7        30.41R WCI  30
ORANGEBURG     CLOUDY    40  10  29 E7        30.38R WCI  35
BARNWELL       MOCLDY    43  18  36 E8        30.36S
AIKEN          CLOUDY    37  14  38 E6        30.37S WCI  33
MANNING        CLOUDY    37   9  30 CALM      30.40R
COLUMBIA       CLOUDY    38   7  27 E9        30.38S WCI  31
SUMTER         MOCLDY    36   6  27 E7        30.38R WCI  31
FLORENCE       PTCLDY    32   9  38 E7        30.43R WCI  26
MYRTLE BEACH   MOCLDY    36  14  41 E9        30.45S WCI  29
N MYRTLE BEACH CLOUDY    35  17  47 E9        30.44R WCI  28

$$

GAZ063-065-086>088-099>101-113>116-118-119-134>141-150-150000-
...SOUTHEAST GEORGIA...

CITY           SKY/WX    TMP DP  RH WIND       PRES   REMARKS
SAVANNAH ARPT  CLOUDY    42  31  64 E10       30.36S
HUNTER AAF     CLOUDY    41  34  75 NE8G21    30.33R
FORT STEWART   CLOUDY    42  33  69 NE6       30.32S
STATESBORO     CLOUDY    47  25  42 E8        30.33F
SYLVANIA       CLOUDY    45  32  60 SE3       30.35S
CLAXTON        CLOUDY    45  36  71 E8        30.34S

...CSRA...CENTRAL AND FAR SOUTHEAST GEORGIA...

CITY           SKY/WX    TMP DP  RH WIND       PRES   REMARKS
THOMSON        CLOUDY    45  23  42 E5        30.35S
AUGUSTA-BUSH   CLOUDY    43  17  35 E7        30.34R
AUGUSTA-DANIEL CLOUDY    44  14  29 E8        30.33S
SWAINSBORO     MOCLDY    46  34  61 SE10      30.31S
VIDALIA        CLOUDY    45  34  65 SE8       30.31S
EASTMAN        FAIR      50  34  53 SE5       30.29S
HAZLEHURST     MOCLDY    48  40  73 E9        30.28S
ALMA           MOCLDY    46  38  73 E7        30.30R
WAYCROSS       CLOUDY    49  43  81 E13G20    30.30S
JESUP          CLOUDY    46  41  81 E7        30.33S
BAXLEY         CLOUDY    46  39  76 E9        30.30S
BRUNSWICK      CLOUDY    46  43  87 NE7       30.32F
SAINT SIMONS   CLOUDY    47  43  86 NE16G23   30.31S

$$

SCZ027-028-034-036>038-045-046-048>050-GAZ119-141-150000-
...LAKE AND SUPPLEMENTAL COASTAL OBSERVATIONS...

STATION/POSITION TIME  TEMP    WIND        PRES    WAVE   SWELL
                       AIR SEA DIR/SP/G            HT/PER HT/PER/DIR
                 (UTC) (F)     (DEG/KT/KT) (MB)    (FT/S) (FT/S/D)
WINYAH BAY       2245   35      70/ 12     1029.0S
LAKE MURRAY      2200   37      90/  7/ 10 1028.1R
ACE BASIN NERRS  2200   39      70/  5     1028.0
FORT PULASKI     2300   42 49              1028.0R
SAPELO ISLAND    2300   45      30/ 12     1026.0S

$$

ANZ835-935-AMZ111-154-330-350-352-354-370-450-454-472-150000-
...C-MAN AND BUOY OBSERVATIONS...

STATION/POSITION TIME  TEMP    WIND        PRES    WAVE   SWELL
                       AIR SEA DIR/SP/G            HT/PER HT/PER/DIR
                 (UTC) (F)     (DEG/KT/KT) (MB)    (FT/S) (FT/S/D)
BUOY 41004       2250   49 68   80/ 14/ 17 1027.8R   6/ 7
BUOY 41008       2250   50 53   50/ 19/ 23 1025.8R   6/ 7
FOLLY BEACH CMAN 2300   40      50/ 22/ 25 1029.0R
CAPERS NEARSHORE 2208   40      50/ 21/ 27 1028.3F
FRIPP NEARSHORE  2200   42      50/ 21/ 25 1026.9R


STATION/POSITION TIME  TEMP    WIND        PRES    WAVE   SWELL
                       AIR SEA DIR/SP/G            HT/PER HT/PER/DIR
                 (UTC) (F)     (DEG/KT/KT) (MB)    (FT/S) (FT/S/D)
5E ST. MARYS GA  2221      55                N/A     6/ 7
FRYING PAN BUOY  2300   40 61   50/ 17/ 25 1030.3F
BUOY 41025       2250   32 71   20/ 14/ 19 1033.4R   5/10   3/ 70/10
CAPE LOOKOUT NC  2300   28      10/ 11/ 14 1032.8R
BUOY 41002       2250   50 67   40/ 14/ 17   N/A     9/10   8/ 20/10
BUOY 41010       2220   63 72              1024.9R
ST AUGUSTINE FL  2300   54 57  360/ 18/ 19 1025.2R


$$




USA.gov is the U.S. government's official web portal to all federal, state and local government web resources and services.